Location: Pinawa
(50.1500°N, 95.8830°W)
Time: 20:59:54
(UTC-05:00)

Daily predictions for brighter satellites

Satellite Brightness Start Highest point End
(mag) Time Altitude Azimuth Time Altitude Azimuth Time Altitude Azimuth
Cosmos 1727 Rocket 4.4 18:51:13 10° N 18:57:18 45° ENE 19:03:21 10° SE
Meteor 2-21 4.5 18:51:45 10° S 18:57:41 60° E 19:03:39 10° NNE
Cosmos 2341 Rocket 4.0 18:53:15 10° S 18:59:31 80° E 19:05:52 10° NNE
Genesis I 4.0 18:56:22 10° WSW 19:00:11 51° NW 19:04:04 10° NE
Cosmos 2322 4.2 18:54:52 10° NNW 19:00:17 41° NE 19:05:41 10° ESE
Gbstr 26 Del rocket 3.5 18:59:44 10° W 19:04:22 74° N 19:10:10 10° E
USA 161 4.4 19:02:59 10° NNW 19:04:26 14° WNW 19:05:48 10° W
MONITOR-E 4.3 19:03:59 10° SSE 19:06:59 50° ENE 19:10:00 10° N
BREEZE M DEB (TANK) 2.7 18:59:37 10° W 19:07:34 83° S 19:10:22 10° E
Meteor 1-16 Rocket 4.2 19:02:57 10° S 19:08:05 55° E 19:13:20 10° NNE
Cosmos 1484 Rocket 3.8 19:07:08 10° S 19:10:46 49° W 19:14:24 10° NNW
Cosmos 1833 Rocket 4.1 19:05:55 10° WSW 19:11:10 39° NW 19:16:26 10° NNE
YAOGAN 1 2.7 19:07:01 10° SSE 19:11:20 84° WSW 19:15:42 10° NNW
GP-B 3.3 19:07:21 10° N 19:11:41 49° E 19:16:00 10° SSE
ALOS 2.6 19:08:25 10° SE 19:12:51 45° ENE 19:17:19 10° N
Cosmos 1703 3.7 19:09:37 10° N 19:13:24 40° ENE 19:17:06 10° SE
Landsat 4 3.7 19:12:14 10° NNE 19:15:59 86° WNW 19:19:42 10° SSW
Abrixas rocket 3.5 19:13:17 10° SW 19:16:08 27° SSE 19:18:42 12° E
FENGYUN 3A 3.8 19:12:24 10° SE 19:17:37 52° ENE 19:22:52 10° N
CZ-2C R/B 3.7 19:13:01 10° NNE 19:17:38 90° WNW 19:22:08 10° SSW
CZ-4 R/B 2.5 19:14:41 10° S 19:18:48 51° W 19:22:53 10° NNW
MOS 1 4.4 19:15:33 10° SSE 19:21:13 90° NNW 19:26:57 10° NNW
Cosmos 1953 4.4 19:18:32 10° SW 19:22:13 32° WNW 19:25:55 10° N
Cosmos 1400 Rocket 2.8 19:18:35 10° N 19:22:40 64° ENE 19:26:39 10° SSE
Meteor 2-14 Rocket 4.4 19:17:29 10° S 19:23:33 73° E 19:29:38 10° NNE
Cosmos 2219 Rocket 3.2 19:20:33 10° NNW 19:25:17 27° NE 19:29:16 13° E
Meteor 2-16 Rocket 4.4 19:20:01 10° S 19:26:03 66° E 19:32:08 10° NNE
Cosmos-2242 3.1 19:23:51 10° S 19:28:07 83° W 19:32:24 10° N
SKYMED 2 3.6 19:25:20 10° NNE 19:29:41 62° ESE 19:33:58 10° S
Thor Agena Rocket 4.3 19:25:32 10° NE 19:29:59 29° E 19:34:22 10° SSE
Meteor 1-28 Rocket 3.5 19:26:28 10° N 19:30:17 70° WNW 19:34:02 10° SSW
Cosmos 1959 Rocket 4.5 19:24:06 10° S 19:30:23 75° E 19:36:46 10° NNE
USA 234 3.6 19:28:01 12° E 19:33:53 54° NNE 19:40:14 10° WNW
ERS-2 4.2 19:31:07 10° SSW 19:34:28 32° W 19:37:50 10° NNW
SL-16 R/B 3.2 19:29:16 10° NW 19:34:44 50° WSW 19:40:11 10° S
Cosmos 2237 4.3 19:30:25 10° NNW 19:36:07 58° NE 19:41:45 10° SE
Cosmos 1743 Rocket 3.5 19:32:00 10° N 19:36:24 90° ENE 19:40:47 10° S
Cosmos 1420 Rocket 4.2 19:32:38 10° NNW 19:37:52 53° ENE 19:43:03 10° SE
GRACE-2 4.0 19:35:28 10° SSE 19:37:55 40° E 19:40:23 10° NNE
Cosmos 1680 Rocket 4.4 19:34:08 10° SW 19:39:17 52° WNW 19:44:27 10° NNE
Cosmos 2151 2.9 19:35:04 10° N 19:39:24 77° E 19:43:40 10° SSE
GRACE-1 3.9 19:37:16 10° SSE 19:39:45 44° E 19:42:15 10° NNE
Cosmos 1908 4.0 19:37:18 10° SSE 19:40:44 30° E 19:44:12 10° NNE
Iridium 4 Rocket 4.1 19:38:18 10° SSE 19:43:25 40° E 19:48:50 10° NNE
Cosmos 1842 Rocket 3.5 19:43:53 10° S 19:48:19 69° E 19:52:47 10° NNE
Envisat 4.0 19:46:16 19° E 19:48:31 25° ENE 19:52:37 10° N
H-2A R/B 3.0 19:44:52 10° SE 19:48:35 47° ENE 19:52:23 10° N
Resurs 01 Rocket 2.7 19:49:59 22° E 19:51:20 25° ENE 19:54:56 10° N
Cosmos 2237 Rocket 3.3 19:48:36 10° NNW 19:53:22 26° NE 19:55:40 20° ENE
Cosmos 1500 Rocket 3.8 19:54:26 10° NNW 19:58:48 70° W 20:03:06 10° S
FREGAT/IRIS 2.4 19:56:03 11° SSE 19:58:56 67° ENE 20:01:56 10° N
Cosmos 2221 2.8 19:55:48 10° SSE 19:59:52 42° E 20:03:59 10° NNE
SL-16 R/B 3.8 19:57:17 10° N 20:01:00 17° NNE 20:02:44 15° NE
Cosmos 2366 rocket 4.2 19:54:52 10° SSW 20:01:06 77° W 20:07:19 10° N
CZ-2D R/B 3.9 20:01:42 30° E 20:02:36 34° ENE 20:06:09 10° N
Cosmos 1315 Rocket 2.8 19:59:33 10° NNW 20:03:37 90° SW 20:07:43 10° S
Cosmos 921 Rocket 3.1 20:01:44 10° NNW 20:06:16 85° WSW 20:10:41 10° SSE
Resurs 1-3 4.3 20:08:29 31° E 20:09:15 33° ENE 20:13:12 10° N
Cosmos 158 Rocket 4.4 20:06:00 10° S 20:10:36 37° ESE 20:15:22 10° NE
HJ-1C 3.3 20:10:02 29° SE 20:11:34 63° ENE 20:14:59 10° N
CSL-04 DEB 4.3 20:08:24 14° SSE 20:11:55 67° ENE 20:15:57 10° N
COSMOS 2428 2.6 20:06:29 10° NNW 20:12:12 72° ENE 20:16:20 19° SE
Cosmos 2058 3.9 20:09:39 10° NNW 20:13:43 48° W 20:17:43 10° SSW
Cosmos 2333 Rocket 2.6 20:10:13 10° NNW 20:15:45 46° NE 20:18:02 31° ESE
BREEZE-M DEB (TANK) 3.5 20:14:09 10° SW 20:15:07 21° SSW 20:15:07 21° SSW
Cosmos 1461 3.6 20:12:01 10° WSW 20:16:03 54° NW 20:19:40 14° NNE
Cosmos 1980 4.4 20:11:14 10° NNW 20:16:25 35° NE 20:18:00 30° E
COSMO-SKYMED 1 3.7 20:13:33 10° N 20:17:43 46° WNW 20:21:52 10° SW
RESURS DK-1 3.3 20:14:49 10° NW 20:18:49 48° WSW 20:22:47 10° S
Cosmos 1626 4.3 20:15:35 10° NNW 20:18:51 29° W 20:22:06 10° SSW
Cosmos 2360 Rocket 2.9 20:13:31 10° NW 20:19:01 53° WSW 20:24:31 10° S
Cosmos 1833 4.1 20:17:41 10° SSW 20:23:22 79° ESE 20:29:02 10° NNE
Cosmos 2098 Rocket 3.4 20:19:28 10° S 20:23:43 56° E 20:29:12 10° NNE
Cosmos 2084 3.8 20:20:30 10° NNW 20:24:04 37° NE 20:24:10 37° NE
FengYun 1-2 T 4.3 20:20:19 10° S 20:25:49 77° WSW 20:31:21 10° NNW
Meteor 2-1 Rocket 4.5 20:21:01 10° SSW 20:26:49 76° WNW 20:32:45 10° N
Cosmos 2219 3.9 20:23:21 10° S 20:27:40 33° SE 20:27:40 33° SE
Cosmos 468 4.4 20:23:24 10° S 20:28:31 60° ESE 20:33:41 10° NNE
MOS 1-B Rocket 3.8 20:25:31 20° SSE 20:29:33 67° ENE 20:35:38 10° NNW
NOSS 0 Rocket 4.0 20:24:16 10° NNW 20:30:22 55° NE 20:32:33 37° ESE
Lacrosse 5 rocket 2.5 20:27:37 10° W 20:31:48 40° NNW 20:33:24 28° NNE
Cosmos 1452 Rocket 4.5 20:27:32 10° NNW 20:32:34 47° WSW 20:37:34 10° S
SJ-6B 2.9 20:30:52 18° S 20:33:33 68° WSW 20:37:17 10° NNW
Sich 1 2.9 20:30:06 10° N 20:34:26 64° ENE 20:35:07 55° SE
SL-8 R/B 4.4 20:30:04 10° SW 20:34:27 36° SSE 20:34:27 36° SSE
Cosmos 1805 Rocket 3.5 20:32:31 10° NNW 20:36:55 83° W 20:39:44 22° S
USA 32 4.5 20:32:32 10° N 20:37:09 40° ENE 20:37:09 40° ENE
H-2A R/B 4.2 20:39:41 13° NE 20:39:41 13° NE 20:41:03 10° NNE
Cosmos 1821 Rocket 3.8 20:32:32 10° S 20:38:39 75° E 20:44:55 10° NNE
USA 267 3.5 20:37:01 37° E 20:38:52 45° SE 20:45:03 10° SSW
ATLAS 5 CENTAUR R/B 4.0 20:38:27 10° NW 20:42:22 20° N 20:45:03 15° NE
Cosmos 1666 Rocket 3.4 20:40:55 10° N 20:45:20 80° E 20:45:46 70° SE
Cosmos 2239 Rocket 4.3 20:41:32 10° S 20:47:40 86° E 20:53:51 10° N
Cosmos 1934 Rocket 3.9 20:41:41 10° S 20:47:58 69° E 20:54:19 10° NNE
ALOS 4.5 20:46:37 10° SSW 20:50:29 26° W 20:54:24 10° NW
Gbstr 26 Del rocket 3.8 20:46:24 10° WNW 20:51:31 69° SSW 20:53:04 49° SE
Abrixas rocket 3.7 20:49:12 10° WSW 20:51:14 33° WSW 20:51:14 33° WSW
Spot 2 Rocket 3.3 20:51:35 57° SE 20:52:34 76° ENE 20:57:38 10° NNW
Aureole 2 Rocket 3.0 20:49:20 10° NNW 20:52:31 62° NNW 20:52:31 62° NNW
Cosmos 1633 Rocket 2.9 20:51:01 10° N 20:55:16 80° NNE 20:55:16 80° NNE
Cosmos 1110 Rocket 3.9 20:50:15 10° NNW 20:55:37 71° ENE 20:56:06 66° ESE
CZ-4C R/B 3.7 20:55:55 10° S 20:57:35 20° S 20:57:35 20° S
Cosmos 2123 Rocket 3.9 20:55:21 10° N 21:01:36 85° W 21:05:32 24° S
Cosmos 2219 Rocket 2.3 21:04:11 10° NNW 21:09:47 72° WSW 21:11:01 53° S
BREEZE-M DEB (TANK) 3.9 20:54:18 10° WNW 21:10:27 58° SW 21:11:54 46° SSE
Cosmos 1605 Rocket 3.8 21:12:12 68° SE 21:12:41 72° E 21:18:46 10° NNE
USA 234 3.2 21:15:23 61° SE 21:16:41 87° SW 21:23:18 10° WNW
Geosat 4.0 21:18:48 72° N 21:18:48 72° N 21:23:23 10° NNW
Cosmos 1048 Rocket 4.0 21:13:30 10° SSW 21:18:38 76° WNW 21:19:10 68° NNW
Cosmos 967 Rocket 4.4 21:19:37 10° NW 21:26:05 73° NE 21:26:09 73° NE
Envisat 3.5 21:26:29 51° SW 21:27:13 56° W 21:32:14 10° NNW
Resurs 01 Rocket 2.6 21:27:35 44° W 21:27:37 44° W 21:31:51 10° NNW
Meteor 2-3 Rocket 3.9 21:23:10 10° N 21:28:12 67° N 21:28:12 67° N
Cosmos 2237 Rocket 2.4 21:32:20 10° NNW 21:37:31 70° WNW 21:37:31 70° WNW
SL-16 R/B 3.1 21:40:43 10° NNW 21:44:36 42° N 21:44:36 42° N
Cosmos 2333 Rocket 3.3 21:54:42 10° NW 21:59:56 37° WSW 22:00:04 37° WSW
Lacrosse 5 rocket 4.2 22:07:55 10° WNW 22:09:05 17° NW 22:09:05 17° NW
H-2A R/B 4.1 22:20:20 22° N 22:20:20 22° N 22:22:11 10° N
USA 267 4.0 22:24:25 45° WSW 22:24:25 45° WSW 22:28:43 10° WSW
CZ-3A R/B 4.0 22:10:52 10° WNW 22:27:02 64° SW 22:27:05 64° SW
ATLAS 5 CENTAUR R/B 4.1 22:23:50 10° NW 22:26:35 24° NNW 22:26:35 24° NNW
